Weather History for KMWL - November, 2013

Change the Weather History Date:

Saturday, November 9, 2013

  Actual Average Record
Temperature  
Mean Temperature 62 °F -  
Max Temperature 70 °F 64 °F 87 °F (2002)
Min Temperature 53 °F 46 °F 33 °F (2000)
Degree Days  
Heating Degree Days 4    
Growing Degree Days 12 (Base 50)    
Moisture  
Dew Point 48 °F    
Average Humidity 68    
Maximum Humidity 96    
Minimum Humidity 51    
Precipitation  
Precipitation 0.00 in - - ()
Sea Level Pressure  
Sea Level Pressure 30.10 in    
Wind  
Wind Speed 10 mph (SSE)    
Max Wind Speed 16 mph    
Max Gust Speed 44 mph    
Visibility 10 miles    
Events      
Averages and records for this station are not official NWS values.
T = Trace of Precipitation, MM = Missing Value Source: NWS Daily Summary

Daily Weather History Graph

Daily Weather History Graph

Search for Another Location

Airport or City:

Trip Planner

Search our weather history database for the weather conditions in past years. The results will help you decide how hot, cold, wet, or windy it might be!

Date:

Astronomy

Nov. 09, 2013 Rise Set
Actual Time 6:57 AM CST 5:34 PM CST
Civil Twilight 6:31 AM CST 6:00 PM CST
Nautical Twilight 6:01 AM CST 6:29 PM CST
Astronomical Twilight 5:32 AM CST 6:58 PM CST
Moon 12:38 PM CST (11/9) No Moon Set
Length of Visible Light 11h 29m
Length of Day
10h 37m
Waxing Crescent, 44% of the Moon is Illuminated
Nov 9
Waxing Crescent
Nov 9
First Quarter
Nov 17
Full
Nov 25
Last Quarter
Dec 2
New

Hourly Weather History & Observations

Time (CST) Temp. Dew Point Humidity Pressure Visibility Wind Dir Wind Speed Gust Speed Precip Events Conditions
12:53 AM 54.0 °F 42.1 °F 64% 30.07 in 10.0 mi SSE 9.2 mph - N/A   Overcast
1:53 AM 54.0 °F 42.1 °F 64% 30.08 in 10.0 mi South 6.9 mph - N/A   Overcast
2:53 AM 54.0 °F 42.1 °F 64% 30.07 in 10.0 mi SE 5.8 mph - N/A   Overcast
3:53 AM 54.0 °F 42.1 °F 64% 30.07 in 10.0 mi SSE 4.6 mph - N/A   Overcast
4:53 AM 54.0 °F 42.1 °F 64% 30.08 in 10.0 mi SSE 9.2 mph - N/A   Overcast
5:53 AM 54.0 °F 42.1 °F 64% 30.09 in 10.0 mi SSE 11.5 mph - N/A   Overcast
6:53 AM 53.1 °F 43.0 °F 69% 30.10 in 10.0 mi SSE 10.4 mph - N/A   Scattered Clouds
7:53 AM 54.0 °F 44.1 °F 69% 30.11 in 10.0 mi SSE 9.2 mph - N/A   Clear
8:53 AM 57.0 °F 45.0 °F 64% 30.12 in 10.0 mi SSE 13.8 mph - N/A   Clear
9:53 AM 61.0 °F 46.0 °F 58% 30.12 in 10.0 mi South 16.1 mph - N/A   Clear
10:53 AM 64.9 °F 48.0 °F 54% 30.10 in 10.0 mi SSE 13.8 mph 20.7 mph N/A   Clear
11:53 AM 66.9 °F 48.0 °F 51% 30.08 in 10.0 mi South 13.8 mph 21.9 mph N/A   Clear
12:53 PM 69.1 °F 50.0 °F 51% 30.06 in 10.0 mi SSE 11.5 mph 19.6 mph N/A   Clear
1:53 PM 69.1 °F 50.0 °F 51% 30.04 in 10.0 mi South 11.5 mph 20.7 mph N/A   Clear
2:53 PM 70.0 °F 51.1 °F 51% 30.04 in 10.0 mi SE 12.7 mph - N/A   Partly Cloudy
3:53 PM 69.1 °F 52.0 °F 54% 30.05 in 10.0 mi SSE 15.0 mph 20.7 mph N/A   Scattered Clouds
4:53 PM 66.0 °F 53.1 °F 63% 30.07 in 10.0 mi SE 13.8 mph 20.7 mph N/A   Scattered Clouds
5:53 PM 62.1 °F 53.1 °F 72% 30.09 in 10.0 mi SE 11.5 mph - N/A   Clear
6:53 PM 59.0 °F 53.1 °F 81% 30.11 in 10.0 mi SE 8.1 mph - N/A   Clear
7:53 PM 57.0 °F 53.1 °F 87% 30.14 in 10.0 mi SE 9.2 mph - N/A   Clear
8:53 PM 55.9 °F 53.1 °F 90% 30.15 in 10.0 mi SE 8.1 mph - N/A   Clear
9:53 PM 55.9 °F 53.1 °F 90% 30.16 in 10.0 mi SSE 8.1 mph - N/A   Clear
10:53 PM 53.1 °F 52.0 °F 96% 30.17 in 10.0 mi ESE 13.8 mph 43.7 mph N/A   Clear
11:53 PM 54.0 °F 52.0 °F 93% 30.17 in 10.0 mi SE 8.1 mph - N/A   Clear